Location: Bou Ouachlou
(32.7770°N, 5.6009°W)
Time: 19:01:32
(UTC+00:00)

Cosmos 2297 Rocket - Pass Details

Date: 07 June 2020
Orbit: 841 x 842 km, 71.0° (Epoch: 06 July)

Event Time Altitude Azimuth Distance (km) Brightness Sun altitude
Rises 01:09:59 0° 329° (NNW) 3,398 5.9 -33.2°
Reaches altitude 10° 01:12:34 10° 322° (NW) 2,460 5.0 -33.1°
Enters shadow 01:14:57 23° 306° (NW) 1,708 3.9 -33.0°
